Wind_Speed
47 47 47 48 48 48 50 52 54 56 57 61 63 64 63 60 58 57 57 55 53 51 48 48 48 45 43 44 43 43 45 44 43 45 46 44 41 34 36 29 27 25 27 29 29 29 31 31 27 23 24 24 24 22
42 43 44 44 44 46 47 48 48 49 51 54 60 62 62 61 59 57 57 55 53 50 48 49 47 44 44 46 46 43 42 41 44 44 43 41 35 29 28 25 28 28 30 33 34 32 34 24 17 20 22 23 20 26
45 46 46 47 48 48 49 50 49 48 46 46 51 56 57 59 58 56 56 54 50 48 47 46 43 46 45 44 44 42 39 42 45 41 36 32 28 25 27 27 28 31 32 32 29 34 22 19 19 19 14 13 16 17
46 47 49 50 50 48 48 49 48 46 44 42 44 50 54 55 55 54 54 53 50 47 45 44 45 45 44 43 41 39 39 39 37 36 33 27 24 26 28 29 30 30 30 30 29 27 22 17 19 15 19 16 19 18
51 52 52 51 48 47 46 45 44 42 40 39 41 45 49 51 52 52 51 50 48 47 44 43 44 42 42 40 39 37 33 32 30 29 26 24 23 27 30 31 25 26 30 26 27 26 21 18 20 14 12 14 15 15
51 50 49 48 46 45 44 42 41 38 37 37 38 41 42 45 47 47 46 46 45 45 44 39 39 37 36 34 32 30 29 26 27 25 24 24 26 29 33 27 18 24 28 28 30 26 23 14 22 19 18 18 13 13
44 43 42 41 39 40 38 38 36 34 34 34 35 35 35 37 40 40 39 39 39 37 36 33 32 33 29 25 24 24 23 24 24 24 24 24 27 34 29 19 17 30 30 30 26 23 19 18 22 21 21 19 13 15
39 38 36 36 36 35 33 32 31 30 31 31 29 29 29 30 33 32 33 31 29 30 30 27 27 26 23 21 23 22 23 23 24 24 23 26 25 27 22 20 23 25 29 27 26 22 20 16 19 20 20 18 13 14
34 34 35 31 29 28 29 28 27 27 29 28 25 24 23 24 25 26 27 25 27 28 27 23 22 21 18 16 20 23 23 22 22 21 21 20 23 22 20 18 20 19 21 20 20 18 17 16 14 17 17 19 17 13
28 25 23 22 21 21 18 21 24 25 24 21 20 20 20 22 21 22 25 26 25 24 22 23 23 23 21 21 20 21 20 20 18 19 18 16 18 17 16 13 14 14 14 15 17 17 14 15 16 15 16 19 18 19
16 17 17 16 14 12 15 18 21 21 18 17 18 19 21 22 23 25 25 22 20 19 20 23 20 21 23 22 22 19 15 14 15 15 15 15 16 14 14 13 13 16 17 17 16 13 14 18 14 11 17 20 15 18
14 13 12 13 12 14 14 19 20 19 20 21 22 23 24 24 25 23 21 20 18 20 21 21 21 21 22 23 16 14 15 13 12 14 13 13 12 10 12 17 15 12 15 19 21 19 19 16 13 13 15 15 12 16
9 11 14 14 16 15 24 24 25 28 29 27 20 18 23 24 23 21 18 17 16 18 18 18 19 19 17 17 16 16 11 9 8 13 15 14 11 9 12 9 11 15 20 21 20 21 17 15 17 14 14 16 12 10
12 15 17 18 18 28 28 30 32 31 33 27 28 22 23 20 19 21 20 22 21 20 17 17 17 18 18 16 17 14 10 13 9 11 14 11 6 7 9 5 7 2 5 2 9 9 1 4 8 16 14 13 11 12
15 17 20 24 29 29 31 33 34 35 35 29 26 25 25 23 22 25 21 20 20 17 15 15 17 18 18 18 15 12 10 9 8 7 8 6 3 3 4 7 7 4 2 1 3 5 4 4 1 3 11 15 19 19
24 24 25 27 28 31 34 33 34 31 32 30 25 26 24 22 21 20 16 18 19 16 13 13 15 15 14 14 12 10 8 1 1 1 4 3 2 2 3 4 3 1 2 4 4 5 4 3 5 5 4 7 8 7
23 22 27 31 34 34 34 33 31 31 30 28 26 23 22 20 22 23 20 19 17 15 15 14 15 14 13 10 10 10 7 7 2 4 6 3 2 3 3 3 4 2 4 7 9 8 7 7 7 8 10 9 12 14
24 27 34 35 35 35 33 31 32 30 29 32 25 21 24 19 18 17 16 15 15 16 15 16 11 12 12 14 15 11 9 10 8 5 2 1 4 6 6 5 6 6 5 6 9 8 8 9 12 12 10 7 10 17
27 32 34 33 31 31 34 35 30 29 29 24 24 25 17 19 15 14 15 17 16 12 14 13 13 11 11 10 10 12 10 10 5 3 1 2 3 3 3 3 4 4 5 6 5 5 8 8 7 10 12 13 10 17
31 34 33 32 32 30 29 27 27 27 24 22 21 21 22 20 17 14 14 14 11 12 6 7 14 12 14 13 9 10 7 4 2 3 2 0 0 2 1 3 4 4 2 3 5 4 3 5 5 8 8 13 16 12
36 35 36 36 35 31 26 23 21 22 20 17 19 17 16 17 12 10 16 13 14 13 14 15 14 11 10 9 7 5 4 3 2 2 1 1 3 5 4 6 6 10 7 3 1 3 1 2 5 7 8 9 11 13
35 37 39 38 35 29 20 20 21 20 21 18 17 17 18 17 22 25 23 21 21 25 20 15 9 5 7 6 2 3 3 5 2 0 1 3 4 4 5 3 5 6 5 4 1 4 7 7 8 8 9 10 12 13
31 32 29 25 20 26 28 23 23 29 25 21 18 17 16 19 16 16 22 22 19 14 10 8 7 5 3 2 2 3 2 3 4 2 3 1 4 6 4 2 4 6 5 6 7 8 8 7 8 9 11 11 11 13
29 27 23 23 31 29 36 34 27 27 20 19 20 16 15 16 16 16 15 15 12 10 8 6 4 2 2 3 2 1 1 2 1 1 2 3 7 4 2 2 4 5 7 8 8 8 8 9 10 11 12 13 16 18
28 27 27 28 25 21 20 21 22 22 17 17 16 13 13 12 11 10 12 13 13 9 6 7 5 5 7 5 4 5 6 6 6 6 7 7 4 1 3 4 5 7 7 7 7 6 6 7 9 12 15 17 19 21
25 26 25 26 23 22 21 19 17 15 12 12 12 12 12 12 11 9 10 9 6 7 8 8 8 6 8 8 9 8 7 6 3 2 2 2 1 2 4 6 8 9 8 8 9 10 12 14 15 17 19 21 23 25
25 26 23 22 22 20 17 17 16 14 12 11 8 8 9 11 12 11 9 8 9 9 11 11 8 8 11 9 10 7 7 5 3 3 5 6 6 6 6 5 4 6 9 11 13 15 16 17 19 20 22 24 26 28
23 23 20 19 19 16 15 14 15 16 14 16 17 21 19 18 21 20 12 11 11 12 12 10 8 7 9 10 8 6 6 3 3 4 1 2 3 4 6 8 10 12 13 14 16 18 19 21 22 22 23 26 28 29
19 20 20 19 17 18 21 21 19 18 20 25 21 22 22 16 15 15 12 11 9 8 6 4 6 8 5 4 4 5 6 4 4 6 7 7 7 7 8 10 11 14 16 17 18 20 21 22 23 24 25 27 28 29
20 19 18 19 20 20 20 18 21 22 20 19 14 15 14 14 13 12 14 13 11 8 6 6 6 5 5 6 6 6 6 7 6 6 6 7 9 9 11 13 15 16 17 17 16 17 18 20 23 25 27 29 31 31
21 21 21 22 21 24 24 22 20 18 17 15 13 11 9 9 8 6 5 6 7 6 5 5 8 9 8 7 6 6 6 6 6 8 9 11 12 13 14 13 13 15 18 20 22 24 24 25 25 26 29 30 31 30
22 22 23 24 20 16 16 14 13 12 10 11 10 10 11 11 12 13 14 14 13 12 11 10 8 8 8 8 7 7 7 8 8 10 12 13 13 11 10 11 14 17 20 24 26 26 26 25 25 26 28 29 30 29
24 23 20 16 13 11 9 7 5 3 4 6 10 14 14 14 14 13 11 11 11 11 11 11 10 8 7 7 7 7 7 9 10 11 12 10 10 12 13 14 17 21 25 27 27 25 24 24 25 27 28 30 31 31
Wind_Direction
273 276 277 278 279 278 276 273 270 267 262 258 254 252 249 249 248 248 249 250 250 251 251 253 252 251 251 252 253 256 257 263 267 269 272 277 280 283 283 280 272 269 264 264 272 277 281 283 297 310 310 306 281 277
270 273 276 279 281 283 283 281 276 271 265 259 253 248 245 244 244 244 245 247 248 249 247 248 249 250 248 249 252 257 261 265 267 269 271 274 278 277 275 266 264 261 261 261 263 277 279 283 295 286 299 302 332 266
273 277 280 280 279 281 282 280 277 273 269 262 252 245 239 238 237 237 240 242 243 243 242 245 248 247 248 251 253 256 260 259 260 265 270 272 271 270 266 259 258 258 261 268 269 269 281 300 287 291 277 301 299 278
276 278 284 282 278 278 279 278 274 269 266 261 252 242 236 233 231 232 234 235 237 238 238 241 245 248 248 250 253 256 257 263 265 267 267 267 261 257 259 261 259 260 265 268 277 284 289 287 289 258 284 277 280 270
278 281 282 277 274 276 277 274 270 264 258 253 247 241 235 231 230 228 230 231 231 233 234 239 240 244 247 249 251 254 256 257 260 262 264 258 253 255 254 256 264 263 264 273 276 280 283 289 274 256 257 281 279 275
277 275 274 274 273 272 272 270 266 257 251 246 243 240 235 233 230 230 230 229 231 234 233 238 240 241 242 243 247 251 254 254 253 251 250 247 256 256 254 263 268 266 267 268 269 272 276 262 250 245 277 298 292 273
272 271 271 270 269 270 268 267 261 250 241 237 238 237 233 231 229 231 230 230 232 234 234 233 235 237 237 241 244 245 244 246 247 247 249 250 256 258 268 276 255 253 257 262 265 264 265 257 256 262 274 280 291 257
272 271 267 268 271 269 265 260 248 238 228 230 232 230 226 225 224 228 229 225 225 226 226 224 225 229 225 224 227 233 235 233 235 241 248 253 262 269 274 267 262 256 255 265 274 277 285 276 260 261 267 275 274 241
268 266 269 266 267 263 263 252 231 219 219 221 223 221 219 216 215 220 220 214 212 216 217 210 208 202 202 209 222 227 233 238 240 244 253 263 265 268 264 259 257 251 253 265 274 272 266 274 277 266 271 267 269 247
266 259 261 262 254 256 245 216 205 207 209 211 209 204 200 200 200 199 202 204 206 206 199 199 205 206 210 216 222 228 232 237 245 254 263 257 257 257 261 262 264 266 263 268 271 273 278 277 270 260 266 263 274 252
256 259 255 241 226 216 196 189 195 193 188 188 187 184 183 181 184 191 195 193 192 188 189 199 196 199 201 205 215 221 225 230 246 254 252 255 262 263 263 257 254 254 259 262 268 253 259 259 262 270 271 275 242 241
256 247 219 186 181 177 180 180 164 163 165 161 164 168 171 175 182 187 184 182 181 186 190 193 193 197 197 203 199 194 211 219 234 241 245 245 254 273 292 249 240 240 258 261 259 256 258 251 253 259 259 262 257 241
224 193 170 162 162 161 155 146 156 153 150 142 137 161 170 173 173 172 166 171 176 179 183 183 185 189 189 187 189 193 208 210 249 238 240 247 246 289 293 276 264 282 284 278 272 250 239 240 255 256 264 263 225 210
166 155 153 154 158 156 148 153 150 148 148 144 144 173 170 168 164 157 156 169 165 168 173 174 176 177 169 183 189 192 200 214 241 234 239 244 237 254 298 230 282 316 51 95 124 133 161 239 276 245 243 221 215 217
146 146 151 153 149 148 151 149 148 150 153 160 161 161 158 156 160 164 161 159 159 160 162 171 171 167 175 185 183 188 199 219 228 223 264 247 281 334 26 116 105 96 155 140 124 157 186 171 275 226 200 211 216 233
138 141 145 147 149 148 148 149 150 156 153 152 154 148 145 147 155 157 150 150 155 162 173 176 169 163 165 170 167 169 203 142 169 339 114 124 40 46 10 31 63 306 278 240 213 213 202 212 237 275 267 244 230 247
136 137 145 145 145 146 148 146 147 149 154 153 148 148 148 142 149 145 152 152 150 148 165 163 162 163 167 165 165 181 177 170 159 123 126 98 48 7 3 335 330 299 238 232 231 242 247 234 227 233 248 252 272 251
132 136 140 143 143 141 141 141 143 146 148 148 146 153 144 138 153 167 142 157 149 164 180 179 153 183 164 160 173 172 169 152 137 128 135 25 340 335 323 320 331 325 303 269 247 254 275 286 264 271 274 265 269 269
129 136 138 139 140 140 142 136 135 143 143 142 146 154 156 141 148 155 156 161 167 178 181 185 173 174 148 166 156 141 139 116 101 129 131 299 302 304 312 327 340 312 280 283 261 274 294 290 278 256 295 266 281 286
129 134 135 136 139 140 146 124 130 141 148 150 152 151 145 150 158 162 155 153 156 147 146 154 145 120 144 143 140 153 147 130 185 187 170 142 36 25 341 4 29 358 298 275 240 248 247 261 259 257 265 254 245 278
130 132 132 131 130 131 131 131 138 140 134 146 159 128 142 137 153 177 174 155 149 134 135 136 134 133 143 156 161 149 136 142 210 210 195 73 61 57 68 111 72 43 52 44 38 225 231 314 316 301 296 294 300 299
135 133 127 120 120 112 101 127 133 129 134 134 119 110 108 109 109 106 121 134 133 135 134 134 147 140 144 146 169 243 219 203 196 196 263 330 10 22 84 62 24 19 25 41 38 343 338 324 320 322 314 307 299 295
141 138 134 122 100 92 117 121 138 135 127 128 123 119 115 121 122 119 114 114 126 137 131 135 151 186 179 195 184 207 210 201 210 256 286 340 87 111 141 114 340 355 3 2 355 342 327 319 315 303 296 297 305 310
116 109 90 107 104 113 106 114 107 129 136 135 131 133 134 134 127 115 133 133 137 137 129 133 136 142 134 156 196 277 152 152 206 227 177 147 123 89 79 28 357 354 352 342 335 325 324 325 317 317 324 325 322 320
113 112 111 118 127 123 121 121 127 132 132 130 132 132 136 141 141 117 112 118 130 136 122 112 103 109 130 131 127 120 121 115 105 94 90 99 135 28 350 346 343 342 336 332 328 329 330 334 333 328 322 316 312 308
108 103 104 111 111 106 109 111 110 110 110 112 119 128 133 134 134 130 126 109 100 111 121 118 99 108 141 123 108 105 109 125 92 67 73 49 356 355 356 354 349 346 353 4 359 351 339 330 327 324 320 315 312 313
106 105 103 104 105 107 110 112 111 109 111 115 112 128 137 142 137 125 123 115 117 114 115 110 116 74 121 131 134 78 92 95 92 48 24 358 344 357 7 5 0 7 8 351 335 330 326 323 321 322 322 322 322 322
107 107 108 111 110 110 109 103 105 106 113 118 99 106 111 121 125 133 143 118 114 115 113 104 101 129 132 103 113 99 74 42 20 34 26 54 51 45 32 11 348 337 333 330 329 327 326 327 325 325 324 323 323 322
116 113 112 111 109 108 107 100 92 93 99 113 110 101 106 111 108 103 111 122 133 136 132 116 105 109 124 96 82 76 82 85 78 87 80 60 37 14 351 333 326 326 327 329 327 323 324 325 324 327 329 328 326 324
116 116 115 113 108 111 113 104 104 104 106 117 104 107 109 109 115 106 112 111 111 117 124 116 96 89 96 100 99 95 97 93 76 53 26 358 347 348 344 336 331 329 329 331 330 329 329 327 327 329 331 333 333 332
114 117 119 114 108 109 107 110 116 106 97 91 91 97 101 102 106 119 134 139 137 140 134 111 105 112 118 114 108 94 73 45 14 358 356 350 344 341 341 342 343 345 346 345 343 340 338 335 334 335 336 336 335 334
108 108 110 117 112 103 120 115 112 109 97 85 84 95 100 101 100 100 103 111 117 121 125 121 112 96 80 66 53 32 12 6 1 345 340 339 341 348 352 353 357 356 351 347 343 339 338 338 338 339 340 340 339 337
113 113 113 114 112 112 106 93 79 73 80 91 99 105 105 107 107 107 108 109 106 100 90 81 74 65 49 38 29 15 354 341 338 338 338 341 343 343 343 343 341 340 340 340 339 338 338 339 340 342 343 343 342 340
Height
5651 5652 5652 5653 5653 5654 5654 5656 5657 5659 5662 5665 5670 5676 5682 5688 5693 5698 5701 5707 5713 5720 5726 5724 5726 5731 5734 5735 5738 5739 5740 5742 5743 5743 5742 5742 5742 5741 5740 5741 5739 5740 5739 5739 5739 5738 5738 5737 5737 5736 5735 5734 5733 5730
5636 5637 5638 5638 5638 5638 5638 5639 5639 5640 5642 5645 5648 5654 5661 5668 5674 5680 5684 5691 5698 5706 5712 5711 5714 5718 5721 5722 5726 5729 5732 5732 5732 5732 5732 5732 5732 5732 5732 5733 5731 5732 5732 5732 5733 5732 5731 5731 5730 5730 5729 5727 5723 5724
5623 5623 5623 5623 5623 5623 5623 5623 5623 5624 5625 5627 5629 5635 5641 5648 5655 5662 5666 5675 5683 5690 5696 5700 5703 5703 5709 5712 5714 5719 5721 5719 5718 5720 5722 5723 5723 5724 5723 5724 5724 5723 5722 5724 5725 5725 5724 5724 5724 5725 5723 5722 5720 5721
5607 5608 5608 5608 5607 5607 5607 5607 5607 5608 5609 5611 5613 5618 5624 5632 5639 5646 5652 5659 5669 5676 5683 5687 5690 5694 5698 5701 5704 5706 5708 5710 5711 5712 5712 5714 5715 5716 5716 5715 5715 5717 5717 5718 5717 5718 5718 5718 5718 5718 5718 5717 5715 5715
5592 5592 5592 5591 5591 5591 5591 5591 5591 5593 5595 5597 5601 5605 5610 5618 5625 5631 5638 5647 5655 5663 5671 5673 5677 5683 5688 5691 5693 5696 5698 5699 5701 5703 5704 5706 5707 5707 5706 5706 5710 5710 5709 5711 5710 5711 5712 5713 5712 5711 5712 5712 5710 5709
5576 5576 5576 5575 5575 5576 5576 5576 5577 5579 5582 5586 5590 5594 5600 5607 5615 5621 5628 5637 5644 5650 5656 5662 5667 5672 5676 5680 5684 5686 5689 5691 5693 5695 5696 5698 5700 5698 5697 5701 5705 5703 5702 5702 5701 5703 5704 5706 5704 5706 5706 5707 5706 5704
5560 5560 5561 5561 5561 5561 5562 5563 5564 5567 5571 5576 5581 5587 5592 5599 5607 5615 5622 5629 5634 5640 5646 5653 5658 5662 5668 5673 5676 5679 5681 5683 5686 5687 5689 5691 5692 5688 5692 5696 5697 5691 5691 5693 5696 5697 5698 5698 5699 5701 5700 5699 5700 5699
5547 5547 5547 5548 5548 5549 5549 5550 5553 5557 5563 5569 5575 5581 5587 5594 5601 5609 5616 5621 5627 5633 5639 5645 5650 5656 5661 5665 5669 5672 5674 5677 5679 5681 5684 5684 5685 5684 5686 5688 5686 5686 5686 5689 5691 5693 5694 5694 5694 5694 5694 5694 5694 5694
5535 5535 5536 5536 5537 5538 5538 5540 5545 5551 5558 5564 5571 5577 5583 5590 5596 5604 5612 5617 5621 5628 5633 5641 5645 5650 5655 5660 5663 5666 5669 5672 5675 5677 5678 5680 5678 5678 5679 5679 5680 5681 5683 5684 5686 5688 5688 5688 5689 5689 5689 5688 5687 5687
5523 5525 5526 5527 5529 5529 5530 5534 5540 5548 5555 5562 5568 5574 5581 5586 5593 5601 5607 5612 5617 5623 5631 5636 5641 5646 5652 5656 5659 5663 5665 5668 5671 5673 5673 5673 5673 5674 5674 5676 5676 5677 5678 5679 5680 5682 5682 5682 5682 5682 5681 5681 5682 5683
5517 5518 5519 5521 5523 5525 5528 5534 5541 5548 5555 5562 5567 5573 5580 5586 5592 5598 5604 5610 5616 5623 5628 5632 5638 5643 5647 5652 5655 5660 5663 5666 5667 5668 5668 5668 5669 5670 5670 5671 5672 5671 5672 5674 5676 5676 5676 5677 5677 5677 5676 5676 5677 5679
5512 5513 5515 5518 5522 5525 5530 5536 5542 5549 5556 5563 5568 5574 5579 5586 5592 5598 5603 5609 5615 5620 5625 5630 5635 5640 5645 5649 5654 5658 5660 5662 5663 5664 5664 5665 5666 5666 5665 5665 5666 5668 5668 5668 5668 5670 5670 5671 5672 5673 5674 5672 5673 5673
5509 5511 5514 5518 5522 5527 5532 5537 5544 5550 5556 5565 5572 5577 5582 5587 5592 5599 5605 5610 5615 5620 5624 5629 5633 5638 5643 5649 5652 5654 5657 5659 5660 5660 5660 5661 5663 5663 5661 5663 5663 5663 5662 5660 5658 5660 5663 5664 5667 5669 5669 5667 5669 5671
5508 5511 5515 5520 5524 5530 5535 5541 5547 5554 5561 5567 5573 5579 5584 5590 5595 5600 5604 5608 5614 5619 5624 5628 5632 5637 5642 5646 5649 5652 5654 5656 5656 5656 5658 5659 5660 5660 5657 5657 5659 5660 5660 5659 5658 5657 5659 5660 5662 5662 5665 5666 5668 5670
5510 5513 5518 5523 5528 5534 5540 5546 5552 5558 5565 5571 5577 5582 5587 5592 5597 5601 5607 5612 5616 5621 5625 5629 5633 5636 5640 5644 5647 5650 5652 5652 5654 5655 5655 5656 5657 5657 5656 5656 5657 5658 5659 5660 5660 5660 5661 5661 5661 5662 5664 5664 5666 5668
5515 5519 5523 5528 5534 5540 5546 5552 5558 5564 5569 5575 5580 5586 5591 5596 5601 5606 5611 5616 5619 5622 5626 5630 5633 5636 5639 5643 5646 5649 5650 5651 5653 5653 5653 5655 5655 5656 5656 5656 5658 5658 5658 5659 5660 5660 5659 5659 5660 5661 5662 5663 5664 5666
5521 5525 5529 5535 5541 5546 5552 5557 5563 5568 5574 5580 5586 5590 5595 5599 5604 5608 5612 5617 5621 5624 5628 5630 5633 5636 5640 5644 5647 5648 5650 5652 5652 5653 5654 5655 5655 5655 5656 5656 5657 5658 5659 5658 5659 5658 5657 5658 5660 5661 5661 5662 5662 5662
5528 5532 5537 5543 5548 5554 5560 5564 5570 5576 5581 5585 5588 5595 5601 5604 5608 5610 5615 5618 5622 5626 5629 5631 5633 5636 5640 5643 5645 5647 5650 5652 5653 5654 5654 5654 5654 5654 5654 5655 5654 5654 5656 5656 5656 5656 5655 5656 5657 5658 5658 5658 5658 5658
5536 5541 5546 5552 5557 5563 5568 5573 5579 5583 5587 5591 5595 5599 5601 5606 5611 5614 5617 5621 5624 5626 5629 5632 5635 5638 5641 5643 5645 5647 5650 5652 5653 5654 5654 5654 5655 5655 5655 5653 5653 5653 5653 5652 5652 5653 5654 5653 5653 5654 5653 5652 5651 5653
5545 5550 5555 5560 5566 5571 5577 5582 5586 5590 5594 5598 5600 5603 5607 5611 5613 5616 5619 5623 5625 5628 5631 5634 5637 5640 5642 5645 5647 5648 5650 5652 5652 5653 5654 5654 5654 5653 5653 5652 5652 5651 5651 5651 5651 5651 5652 5652 5651 5651 5651 5651 5650 5649
5555 5559 5564 5569 5575 5581 5586 5589 5592 5595 5599 5603 5604 5606 5611 5614 5615 5617 5620 5623 5628 5630 5633 5637 5639 5642 5644 5645 5648 5650 5651 5650 5650 5652 5652 5653 5653 5653 5653 5653 5653 5650 5650 5650 5651 5651 5650 5650 5650 5649 5649 5648 5647 5646
5565 5570 5575 5580 5583 5587 5592 5595 5598 5601 5604 5607 5609 5612 5616 5617 5620 5620 5623 5627 5631 5635 5637 5640 5642 5644 5645 5646 5647 5648 5649 5649 5650 5651 5651 5651 5651 5651 5651 5651 5651 5650 5650 5649 5650 5649 5648 5647 5647 5647 5645 5644 5643 5641
5574 5578 5583 5587 5590 5592 5596 5597 5599 5606 5609 5613 5616 5617 5620 5623 5625 5627 5629 5632 5635 5638 5640 5642 5643 5644 5645 5647 5647 5648 5649 5649 5649 5650 5650 5651 5652 5652 5652 5651 5651 5650 5649 5649 5648 5647 5646 5645 5645 5643 5642 5641 5639 5637
5586 5589 5591 5594 5595 5599 5603 5604 5605 5611 5615 5618 5621 5623 5626 5628 5630 5632 5634 5637 5639 5641 5642 5642 5642 5644 5645 5646 5647 5648 5648 5649 5650 5650 5650 5651 5652 5652 5652 5651 5650 5649 5648 5647 5647 5646 5645 5643 5641 5639 5638 5636 5634 5631
5596 5598 5600 5601 5604 5606 5609 5612 5615 5619 5622 5624 5625 5627 5629 5631 5634 5637 5638 5640 5641 5642 5643 5644 5644 5645 5645 5646 5647 5648 5648 5649 5650 5650 5651 5652 5652 5652 5651 5650 5649 5648 5647 5646 5645 5644 5643 5641 5640 5638 5635 5633 5630 5627
5603 5605 5608 5609 5612 5615 5617 5620 5622 5623 5625 5627 5629 5631 5632 5635 5637 5639 5640 5641 5642 5643 5643 5644 5645 5645 5646 5648 5648 5649 5650 5651 5652 5652 5652 5652 5652 5652 5651 5649 5648 5647 5646 5645 5643 5642 5640 5638 5636 5634 5631 5628 5624 5621
5611 5613 5616 5618 5620 5622 5625 5626 5627 5629 5630 5631 5632 5633 5635 5637 5639 5642 5642 5644 5644 5645 5646 5647 5648 5648 5648 5650 5651 5651 5652 5652 5652 5652 5652 5652 5651 5650 5650 5649 5648 5647 5645 5643 5641 5639 5637 5634 5632 5629 5625 5621 5617 5613
5620 5621 5623 5626 5627 5628 5629 5630 5632 5632 5633 5635 5636 5637 5638 5640 5643 5644 5645 5647 5648 5649 5650 5650 5650 5651 5652 5652 5653 5653 5653 5652 5652 5653 5653 5653 5652 5651 5650 5648 5646 5645 5644 5642 5638 5635 5633 5630 5627 5624 5621 5617 5612 5606
5627 5628 5630 5631 5632 5633 5635 5636 5637 5637 5638 5640 5643 5644 5644 5645 5647 5648 5648 5649 5650 5652 5652 5653 5653 5654 5654 5654 5654 5654 5654 5654 5654 5654 5654 5653 5652 5651 5650 5648 5646 5643 5641 5638 5636 5632 5629 5626 5622 5618 5615 5611 5606 5601
5633 5634 5636 5637 5638 5640 5642 5643 5645 5645 5646 5648 5649 5649 5650 5651 5652 5652 5653 5654 5654 5655 5655 5656 5656 5657 5656 5656 5656 5656 5656 5655 5655 5654 5654 5653 5651 5650 5648 5646 5643 5640 5638 5636 5633 5630 5626 5623 5618 5614 5609 5604 5599 5594
5638 5640 5642 5644 5645 5646 5648 5649 5651 5652 5652 5653 5653 5654 5654 5655 5655 5655 5656 5656 5657 5657 5657 5658 5658 5659 5659 5659 5658 5658 5657 5657 5655 5654 5653 5651 5649 5648 5646 5643 5641 5638 5635 5632 5628 5625 5621 5617 5613 5609 5604 5599 5594 5589
5646 5647 5649 5652 5653 5654 5654 5655 5656 5657 5657 5657 5657 5657 5657 5658 5658 5658 5659 5660 5660 5660 5661 5660 5660 5660 5660 5660 5659 5659 5658 5656 5655 5654 5652 5650 5648 5646 5644 5642 5639 5637 5634 5630 5626 5621 5617 5613 5609 5605 5600 5595 5590 5584
5653 5654 5656 5658 5659 5659 5659 5659 5659 5659 5659 5660 5660 5660 5661 5662 5662 5663 5663 5663 5663 5663 5662 5662 5662 5662 5661 5660 5660 5659 5658 5656 5654 5652 5650 5648 5646 5644 5642 5640 5637 5634 5631 5627 5623 5619 5615 5610 5606 5601 5596 5591 5586 5580